TimeCST,TemperatureF,Dew PointF,Humidity,Sea Level PressureIn,VisibilityMPH,Wind Direction,Wind SpeedMPH,Gust SpeedMPH,PrecipitationIn,Events,Conditions,WindDirDegrees,DateUTC
12:53 AM,21.0,17.1,85,30.42,10.0,South,6.9,-,N/A,,Clear,190,2012-11-27 06:53:00
1:53 AM,21.0,17.1,85,30.37,10.0,South,6.9,-,N/A,,Clear,180,2012-11-27 07:53:00
2:53 AM,19.9,16.0,85,30.35,10.0,South,4.6,-,N/A,,Clear,170,2012-11-27 08:53:00
3:53 AM,21.0,17.1,85,30.32,10.0,South,5.8,-,N/A,,Clear,190,2012-11-27 09:53:00
4:53 AM,23.0,17.1,78,30.28,10.0,SSW,6.9,-,N/A,,Clear,200,2012-11-27 10:53:00
5:53 AM,21.0,15.1,78,30.28,10.0,Calm,Calm,-,N/A,,Clear,0,2012-11-27 11:53:00
6:53 AM,21.0,15.1,78,30.28,10.0,Calm,Calm,-,N/A,,Clear,0,2012-11-27 12:53:00
7:53 AM,19.0,15.1,85,30.28,10.0,Calm,Calm,-,N/A,,Clear,0,2012-11-27 13:53:00
8:53 AM,21.0,17.1,85,30.29,10.0,Calm,Calm,-,N/A,,Clear,0,2012-11-27 14:53:00
9:53 AM,27.0,19.9,75,30.28,10.0,West,11.5,-,N/A,,Clear,260,2012-11-27 15:53:00
10:53 AM,30.9,23.0,72,30.27,10.0,West,6.9,-,N/A,,Clear,280,2012-11-27 16:53:00
11:53 AM,37.0,25.0,62,30.24,10.0,West,5.8,-,N/A,,Clear,260,2012-11-27 17:53:00
12:53 PM,41.0,27.0,57,30.20,10.0,NNW,4.6,-,N/A,,Clear,340,2012-11-27 18:53:00
1:53 PM,48.9,27.0,43,30.17,10.0,NNW,8.1,-,N/A,,Clear,330,2012-11-27 19:53:00
2:53 PM,51.1,25.0,36,30.17,10.0,North,6.9,-,N/A,,Clear,350,2012-11-27 20:53:00
3:53 PM,48.9,21.9,35,30.19,10.0,NE,6.9,-,N/A,,Clear,40,2012-11-27 21:53:00
4:53 PM,43.0,21.0,42,30.23,10.0,NNE,6.9,-,N/A,,Clear,30,2012-11-27 22:53:00
5:53 PM,36.0,19.9,52,30.26,10.0,NE,8.1,-,N/A,,Clear,50,2012-11-27 23:53:00
6:53 PM,28.0,19.0,69,30.29,10.0,East,3.5,-,N/A,,Clear,90,2012-11-28 00:53:00
7:53 PM,24.1,18.0,77,30.33,10.0,ENE,6.9,-,N/A,,Clear,60,2012-11-28 01:53:00
8:53 PM,21.0,16.0,81,30.37,10.0,ENE,3.5,-,N/A,,Clear,70,2012-11-28 02:53:00
9:53 PM,17.1,12.9,84,30.37,10.0,Calm,Calm,-,N/A,,Clear,0,2012-11-28 03:53:00
10:53 PM,17.1,12.9,84,30.37,10.0,Calm,Calm,-,N/A,,Clear,0,2012-11-28 04:53:00
11:53 PM,17.1,14.0,88,30.37,10.0,NNE,3.5,-,N/A,,Clear,30,2012-11-28 05:53:00